EFW8RA LIPX-EGKK

Flight info

Callsign EFW8RA
Flight time 1h 39m
Altitude 36000
Route OTZOM Y480 UPXUF L612 ADOSA DCT BORMI DCT RESIA DCT ELMUR DCT RIPUS DCT DITON DCT HOC DCT LUL DCT RLP DCT ROTSI DCT KOTUN DCT NINAL DCT KESAX DCT KUNAV
Aircraft A321/M-SDE3FGHIRWY/LB1

Departure

Time 2026-05-06 16:58
Airport Verona Villafranca Valerio Catullo Airport (LIPX)

Arrival

Time 2026-05-06 18:37
Airport London Gatwick Airport (EGKK)
Time Latitude Longitude Altitude Speed Heading
2026-05-06 16:22 45.40248 10.90517 249 ft 0 kts 135°
2026-05-06 16:45 45.40251 10.90513 249 ft 2 kts 139°
2026-05-06 16:46 45.40264 10.90501 249 ft 2 kts 158°
2026-05-06 16:46 45.40278 10.90496 249 ft 2 kts 174°
2026-05-06 16:46 45.40293 10.90496 249 ft 2 kts 191°
2026-05-06 16:46 45.40308 10.90503 249 ft 2 kts 207°
2026-05-06 16:47 45.40320 10.90514 249 ft 2 kts 223°
2026-05-06 16:47 45.40329 10.90529 249 ft 1 kts 228°
2026-05-06 16:47 45.40331 10.90532 249 ft 0 kts 227°
2026-05-06 16:49 45.40331 10.90531 249 ft 0 kts 227°
2026-05-06 16:49 45.40313 10.90504 249 ft 8 kts 227°
2026-05-06 16:50 45.40270 10.90440 249 ft 8 kts 228°
2026-05-06 16:50 45.40277 10.90361 249 ft 9 kts 315°
2026-05-06 16:50 45.40326 10.90293 249 ft 7 kts 306°
2026-05-06 16:50 45.40329 10.90213 249 ft 8 kts 257°
2026-05-06 16:51 45.40317 10.90149 249 ft 0 kts 256°
2026-05-06 16:52 45.40317 10.90145 249 ft 2 kts 256°
2026-05-06 16:52 45.40303 10.90067 249 ft 11 kts 256°
2026-05-06 16:52 45.40283 10.89951 249 ft 12 kts 258°
2026-05-06 16:52 45.40248 10.89838 249 ft 12 kts 227°
2026-05-06 16:53 45.40175 10.89731 249 ft 17 kts 225°
2026-05-06 16:53 45.40079 10.89594 249 ft 20 kts 225°
2026-05-06 16:53 45.39980 10.89449 248 ft 20 kts 225°
2026-05-06 16:53 45.39884 10.89310 248 ft 19 kts 226°
2026-05-06 16:54 45.39789 10.89172 248 ft 19 kts 225°
2026-05-06 16:54 45.39693 10.89032 248 ft 20 kts 226°
2026-05-06 16:54 45.39590 10.88881 248 ft 21 kts 226°
2026-05-06 16:54 45.39484 10.88728 248 ft 21 kts 226°
2026-05-06 16:55 45.39382 10.88579 248 ft 20 kts 226°
2026-05-06 16:55 45.39280 10.88432 248 ft 20 kts 225°
2026-05-06 16:55 45.39183 10.88290 248 ft 20 kts 226°
2026-05-06 16:55 45.39085 10.88148 248 ft 19 kts 226°
2026-05-06 16:56 45.38990 10.88010 248 ft 19 kts 226°
2026-05-06 16:56 45.38896 10.87872 248 ft 19 kts 226°
2026-05-06 16:56 45.38810 10.87747 248 ft 12 kts 226°
2026-05-06 16:56 45.38750 10.87691 248 ft 5 kts 204°
2026-05-06 16:57 45.38740 10.87662 248 ft 3 kts 303°
2026-05-06 16:57 45.38765 10.87672 248 ft 5 kts 54°
2026-05-06 16:57 45.38790 10.87719 248 ft 6 kts 47°
2026-05-06 16:57 45.38886 10.87860 248 ft 48 kts 46°
2026-05-06 16:58 45.39297 10.88457 248 ft 117 kts 46°
2026-05-06 16:58 45.40003 10.89478 290 ft 167 kts 47°
2026-05-06 16:58 45.40820 10.90674 900 ft 169 kts 49°
2026-05-06 16:58 45.41402 10.92051 1517 ft 168 kts 82°
2026-05-06 16:59 45.41204 10.93627 2077 ft 164 kts 124°
2026-05-06 16:59 45.40447 10.94876 2354 ft 173 kts 135°
2026-05-06 16:59 45.39612 10.96222 2618 ft 187 kts 130°
2026-05-06 16:59 45.38822 10.97770 2891 ft 202 kts 125°
2026-05-06 17:00 45.38060 10.99521 3172 ft 217 kts 122°
2026-05-06 17:00 45.37293 11.01470 3413 ft 237 kts 120°
2026-05-06 17:00 45.36492 11.03627 3759 ft 255 kts 119°
2026-05-06 17:00 45.35658 11.05944 4266 ft 267 kts 118°
2026-05-06 17:01 45.34832 11.08275 4968 ft 271 kts 119°
2026-05-06 17:01 45.33985 11.10673 5681 ft 275 kts 119°
2026-05-06 17:01 45.33120 11.13111 6420 ft 279 kts 120°
2026-05-06 17:01 45.32249 11.15567 7192 ft 281 kts 120°
2026-05-06 17:02 45.31552 11.18152 7895 ft 291 kts 101°
2026-05-06 17:02 45.31672 11.21016 8589 ft 300 kts 74°
2026-05-06 17:02 45.32688 11.23600 9310 ft 304 kts 47°
2026-05-06 17:02 45.34397 11.25305 10013 ft 304 kts 19°
2026-05-06 17:03 45.36462 11.25801 10468 ft 311 kts 353°
2026-05-06 17:03 45.38550 11.24894 10773 ft 319 kts 325°
2026-05-06 17:03 45.40346 11.22978 11096 ft 332 kts 317°
2026-05-06 17:03 45.42189 11.20895 11505 ft 344 kts 318°
2026-05-06 17:04 45.44093 11.18800 12125 ft 349 kts 319°
2026-05-06 17:04 45.46043 11.16696 12786 ft 353 kts 319°
2026-05-06 17:04 45.48081 11.14747 13394 ft 360 kts 327°
2026-05-06 17:04 45.50301 11.13085 13997 ft 365 kts 329°
2026-05-06 17:05 45.52566 11.11467 14611 ft 369 kts 329°
2026-05-06 17:05 45.54861 11.09799 15220 ft 372 kts 328°
2026-05-06 17:05 45.57171 11.08069 15825 ft 375 kts 328°
2026-05-06 17:05 45.59460 11.06323 16421 ft 378 kts 327°
2026-05-06 17:06 45.61797 11.04546 17003 ft 382 kts 329°
2026-05-06 17:06 45.64319 11.03370 17504 ft 395 kts 348°
2026-05-06 17:06 45.67091 11.03398 18030 ft 404 kts
2026-05-06 17:06 45.69835 11.04294 18589 ft 409 kts 12°
2026-05-06 17:07 45.72601 11.05357 19056 ft 414 kts 13°
2026-05-06 17:07 45.75375 11.06429 19531 ft 419 kts 13°
2026-05-06 17:07 45.78212 11.07498 20037 ft 422 kts 12°
2026-05-06 17:07 45.81054 11.08542 20517 ft 426 kts 12°
2026-05-06 17:08 45.83960 11.09591 20974 ft 430 kts 11°
2026-05-06 17:08 45.86853 11.10633 21429 ft 434 kts 11°
2026-05-06 17:08 45.89802 11.11688 21883 ft 438 kts 11°
2026-05-06 17:08 45.92742 11.12744 22329 ft 441 kts 11°
2026-05-06 17:09 45.95745 11.13824 22737 ft 445 kts 11°
2026-05-06 17:09 45.98770 11.14776 23180 ft 445 kts
2026-05-06 17:09 46.01781 11.14514 23545 ft 434 kts 339°
2026-05-06 17:09 46.04474 11.12737 23940 ft 418 kts 317°
2026-05-06 17:10 46.06486 11.09897 24361 ft 401 kts 298°
2026-05-06 17:10 46.07898 11.06499 24798 ft 396 kts 291°
2026-05-06 17:10 46.09232 11.03016 25161 ft 400 kts 291°
2026-05-06 17:10 46.10592 10.99482 25502 ft 404 kts 291°
2026-05-06 17:11 46.11974 10.95942 25889 ft 406 kts 291°
2026-05-06 17:11 46.13348 10.92442 26252 ft 408 kts 292°
2026-05-06 17:11 46.14755 10.88879 26639 ft 410 kts 291°
2026-05-06 17:11 46.16170 10.85301 27022 ft 411 kts 292°
2026-05-06 17:12 46.17594 10.81707 27351 ft 414 kts 291°
2026-05-06 17:12 46.19016 10.78116 27678 ft 415 kts 291°
2026-05-06 17:12 46.20441 10.74514 28043 ft 416 kts 291°
2026-05-06 17:12 46.21880 10.70871 28379 ft 418 kts 291°
2026-05-06 17:13 46.23322 10.67218 28649 ft 421 kts 291°
2026-05-06 17:13 46.24751 10.63588 28892 ft 424 kts 291°
2026-05-06 17:13 46.26214 10.59868 29183 ft 426 kts 291°
2026-05-06 17:13 46.27684 10.56134 29493 ft 427 kts 291°
2026-05-06 17:14 46.29142 10.52425 29786 ft 428 kts 291°
2026-05-06 17:14 46.30609 10.48682 30127 ft 428 kts 291°
2026-05-06 17:14 46.32062 10.44979 30503 ft 427 kts 291°
2026-05-06 17:14 46.33525 10.41239 30815 ft 427 kts 291°
2026-05-06 17:15 46.34986 10.37498 31162 ft 427 kts 290°
2026-05-06 17:15 46.36425 10.33803 31499 ft 426 kts 290°
2026-05-06 17:15 46.37885 10.30052 31908 ft 423 kts 290°
2026-05-06 17:15 46.39305 10.26407 32303 ft 421 kts 290°
2026-05-06 17:16 46.40743 10.22702 32624 ft 420 kts 290°
2026-05-06 17:16 46.42155 10.19051 32939 ft 419 kts 290°
2026-05-06 17:16 46.43585 10.15358 33255 ft 418 kts 290°
2026-05-06 17:16 46.45010 10.11672 33515 ft 418 kts 290°
2026-05-06 17:17 46.46506 10.08034 33780 ft 422 kts 293°
2026-05-06 17:17 46.48123 10.04531 34042 ft 425 kts 296°
2026-05-06 17:17 46.49896 10.01106 34284 ft 429 kts 299°
2026-05-06 17:17 46.51820 9.97769 34499 ft 432 kts 302°
2026-05-06 17:18 46.53809 9.94472 34641 ft 434 kts 302°
2026-05-06 17:18 46.55806 9.91196 34775 ft 436 kts 303°
2026-05-06 17:18 46.57814 9.87899 34919 ft 437 kts 303°
2026-05-06 17:18 46.59820 9.84597 35052 ft 437 kts 303°
2026-05-06 17:19 46.61836 9.81275 35161 ft 438 kts 303°
2026-05-06 17:19 46.63853 9.77944 35263 ft 440 kts 303°
2026-05-06 17:19 46.65855 9.74627 35393 ft 440 kts 303°
2026-05-06 17:19 46.67874 9.71282 35533 ft 440 kts 304°
2026-05-06 17:20 46.69884 9.67946 35676 ft 440 kts 304°
2026-05-06 17:20 46.71906 9.64584 35802 ft 441 kts 304°
2026-05-06 17:20 46.73915 9.61240 35850 ft 443 kts 304°
2026-05-06 17:21 46.77981 9.54466 35860 ft 443 kts 304°
2026-05-06 17:21 46.82013 9.47725 35863 ft 444 kts 304°
2026-05-06 17:22 46.86068 9.40933 35881 ft 448 kts 304°
2026-05-06 17:22 46.90093 9.34161 35866 ft 456 kts 304°
2026-05-06 17:23 46.94281 9.27100 35855 ft 464 kts 304°
2026-05-06 17:23 46.98507 9.19971 35845 ft 465 kts 304°
2026-05-06 17:24 47.02751 9.12791 36110 ft 467 kts 304°
2026-05-06 17:24 47.04858 9.09215 35785 ft 465 kts 304°
2026-05-06 17:24 47.06969 9.05625 36060 ft 466 kts 304°
2026-05-06 17:24 47.09050 9.02083 35947 ft 464 kts 304°
2026-05-06 17:25 47.11092 8.98369 35893 ft 460 kts 301°
2026-05-06 17:25 47.14671 8.90643 35878 ft 457 kts 295°
2026-05-06 17:26 47.17615 8.82493 35881 ft 452 kts 289°
2026-05-06 17:26 47.19979 8.73940 35881 ft 450 kts 285°
2026-05-06 17:27 47.22150 8.65363 35894 ft 450 kts 285°
2026-05-06 17:27 47.24329 8.56744 35879 ft 451 kts 285°
2026-05-06 17:28 47.26505 8.48145 35874 ft 451 kts 285°
2026-05-06 17:28 47.28684 8.39499 35872 ft 451 kts 285°
2026-05-06 17:29 47.30859 8.30818 35888 ft 452 kts 284°
2026-05-06 17:29 47.33012 8.22188 35886 ft 453 kts 285°
2026-05-06 17:30 47.35175 8.13465 35885 ft 453 kts 285°
2026-05-06 17:30 47.37336 8.04724 35888 ft 454 kts 285°
2026-05-06 17:31 47.39479 7.96015 35882 ft 455 kts 285°
2026-05-06 17:31 47.41632 7.87220 35882 ft 456 kts 285°
2026-05-06 17:32 47.43785 7.78400 35886 ft 456 kts 285°
2026-05-06 17:32 47.45920 7.69587 35889 ft 456 kts 284°
2026-05-06 17:33 47.47671 7.60625 35886 ft 454 kts 280°
2026-05-06 17:33 47.49205 7.51479 35882 ft 454 kts 280°
2026-05-06 17:34 47.50705 7.42439 35882 ft 455 kts 280°
2026-05-06 17:34 47.52200 7.33398 35882 ft 456 kts 279°
2026-05-06 17:35 47.53698 7.24307 35882 ft 456 kts 279°
2026-05-06 17:35 47.55181 7.15267 35881 ft 456 kts 279°
2026-05-06 17:36 47.57402 7.01623 35882 ft 457 kts 279°
2026-05-06 17:36 47.58890 6.92428 35875 ft 457 kts 280°
2026-05-06 17:37 47.60360 6.83279 35869 ft 458 kts 280°
2026-05-06 17:37 47.61824 6.74132 35867 ft 459 kts 280°
2026-05-06 17:38 47.63280 6.64981 35867 ft 459 kts 280°
2026-05-06 17:38 47.64733 6.55784 35867 ft 459 kts 280°
2026-05-06 17:39 47.66180 6.46590 35867 ft 459 kts 280°
2026-05-06 17:39 47.67614 6.37400 35869 ft 460 kts 280°
2026-05-06 17:40 47.69148 6.28183 35871 ft 462 kts 283°
2026-05-06 17:40 47.71057 6.19073 35871 ft 463 kts 284°
2026-05-06 17:41 47.72990 6.10017 35865 ft 463 kts 284°
2026-05-06 17:41 47.74909 6.00968 35866 ft 463 kts 285°
2026-05-06 17:42 47.76832 5.91823 35875 ft 463 kts 285°
2026-05-06 17:42 47.78738 5.82724 35875 ft 464 kts 285°
2026-05-06 17:43 47.80632 5.73642 35874 ft 464 kts 285°
2026-05-06 17:43 47.82532 5.64484 35872 ft 463 kts 285°
2026-05-06 17:44 47.84409 5.55391 35873 ft 463 kts 285°
2026-05-06 17:44 47.86285 5.46247 35877 ft 463 kts 285°
2026-05-06 17:45 47.88205 5.37081 35875 ft 464 kts 288°
2026-05-06 17:45 47.90680 5.28414 35875 ft 465 kts 295°
2026-05-06 17:46 47.93992 5.20152 35880 ft 467 kts 303°
2026-05-06 17:46 47.98048 5.12596 35880 ft 469 kts 310°
2026-05-06 17:47 48.02441 5.05363 35881 ft 469 kts 310°
2026-05-06 17:47 48.06801 4.98198 35885 ft 469 kts 310°
2026-05-06 17:48 48.11172 4.90969 35892 ft 469 kts 310°
2026-05-06 17:48 48.15551 4.83694 35890 ft 469 kts 310°
2026-05-06 17:49 48.19891 4.76460 35887 ft 469 kts 310°
2026-05-06 17:49 48.24226 4.69211 35903 ft 468 kts 310°
2026-05-06 17:50 48.28538 4.61982 35895 ft 468 kts 310°
2026-05-06 17:50 48.32865 4.54709 35898 ft 468 kts 311°
2026-05-06 17:51 48.37189 4.47416 35900 ft 468 kts 311°
2026-05-06 17:51 48.41483 4.40148 35918 ft 468 kts 311°
2026-05-06 17:52 48.45817 4.32796 35910 ft 468 kts 310°
2026-05-06 17:52 48.50104 4.25496 35908 ft 467 kts 310°
2026-05-06 17:53 48.54372 4.18211 35917 ft 466 kts 310°
2026-05-06 17:53 48.58659 4.10870 35927 ft 466 kts 310°
2026-05-06 17:54 48.62921 4.03554 35922 ft 466 kts 310°
2026-05-06 17:54 48.67184 3.96214 35904 ft 466 kts 310°
2026-05-06 17:55 48.71457 3.88851 35896 ft 466 kts 311°
2026-05-06 17:55 48.75978 3.81847 35902 ft 467 kts 315°
2026-05-06 17:56 48.80597 3.75000 35894 ft 467 kts 315°
2026-05-06 17:56 48.85212 3.68138 35897 ft 466 kts 315°
2026-05-06 17:57 48.89817 3.61260 35902 ft 465 kts 315°
2026-05-06 17:57 48.94393 3.54398 35898 ft 464 kts 315°
2026-05-06 17:58 48.98901 3.47618 35896 ft 447 kts 315°
2026-05-06 17:58 49.03285 3.41004 35896 ft 444 kts 315°
2026-05-06 17:59 49.07659 3.34392 35897 ft 444 kts 315°
2026-05-06 17:59 49.12037 3.27765 35893 ft 442 kts 314°
2026-05-06 18:00 49.16370 3.21179 35889 ft 442 kts 314°
2026-05-06 18:00 49.20723 3.14543 35892 ft 441 kts 314°
2026-05-06 18:01 49.25046 3.07939 35894 ft 442 kts 314°
2026-05-06 18:01 49.29366 3.01321 35900 ft 442 kts 314°
2026-05-06 18:02 49.33705 2.94657 35909 ft 442 kts 314°
2026-05-06 18:02 49.38034 2.87993 35918 ft 442 kts 314°
2026-05-06 18:03 49.42342 2.81342 35907 ft 441 kts 314°
2026-05-06 18:03 49.46670 2.74637 35932 ft 441 kts 314°
2026-05-06 18:04 49.50973 2.67957 35930 ft 441 kts 314°
2026-05-06 18:04 49.55246 2.61301 35943 ft 441 kts 314°
2026-05-06 18:05 49.59543 2.54584 35928 ft 441 kts 314°
2026-05-06 18:05 49.63584 2.47569 35937 ft 440 kts 310°
2026-05-06 18:06 49.67549 2.40358 35942 ft 439 kts 310°
2026-05-06 18:06 49.71467 2.33208 35944 ft 439 kts 309°
2026-05-06 18:07 49.75389 2.26039 35943 ft 439 kts 309°
2026-05-06 18:07 49.79312 2.18854 35927 ft 439 kts 310°
2026-05-06 18:08 49.83229 2.11659 35672 ft 437 kts 310°
2026-05-06 18:08 49.85183 2.08062 35503 ft 435 kts 310°
2026-05-06 18:08 49.87125 2.04483 35310 ft 433 kts 310°
2026-05-06 18:09 49.89057 2.00918 35125 ft 432 kts 310°
2026-05-06 18:09 49.90971 1.97383 34886 ft 430 kts 310°
2026-05-06 18:09 49.92871 1.93866 34514 ft 428 kts 310°
2026-05-06 18:09 49.94769 1.90352 34038 ft 428 kts 310°
2026-05-06 18:10 49.96667 1.86833 33447 ft 428 kts 310°
2026-05-06 18:10 49.98587 1.83266 32797 ft 428 kts 310°
2026-05-06 18:10 50.00487 1.79730 32137 ft 428 kts 310°
2026-05-06 18:10 50.02384 1.76196 31453 ft 429 kts 310°
2026-05-06 18:11 50.04281 1.72656 30716 ft 430 kts 310°
2026-05-06 18:11 50.06232 1.69201 29943 ft 432 kts 313°
2026-05-06 18:11 50.08334 1.65865 29188 ft 432 kts 316°
2026-05-06 18:11 50.10521 1.62749 28702 ft 429 kts 318°
2026-05-06 18:12 50.12758 1.59695 28194 ft 426 kts 319°
2026-05-06 18:12 50.14995 1.56668 27682 ft 423 kts 319°
2026-05-06 18:12 50.17188 1.53699 27184 ft 419 kts 319°
2026-05-06 18:12 50.19379 1.50724 26682 ft 416 kts 319°
2026-05-06 18:13 50.21528 1.47800 26184 ft 412 kts 318°
2026-05-06 18:13 50.23672 1.44878 25706 ft 409 kts 318°
2026-05-06 18:13 50.25804 1.41966 25235 ft 406 kts 318°
2026-05-06 18:13 50.27924 1.39065 24754 ft 403 kts 318°
2026-05-06 18:14 50.30024 1.36189 24267 ft 400 kts 318°
2026-05-06 18:14 50.32085 1.33363 23777 ft 397 kts 317°
2026-05-06 18:14 50.34146 1.30530 23281 ft 394 kts 317°
2026-05-06 18:14 50.36180 1.27734 22783 ft 391 kts 317°
2026-05-06 18:15 50.38222 1.24923 22279 ft 387 kts 317°
2026-05-06 18:15 50.40216 1.22175 21793 ft 384 kts 317°
2026-05-06 18:15 50.42211 1.19422 21306 ft 381 kts 317°
2026-05-06 18:15 50.44186 1.16694 20821 ft 378 kts 317°
2026-05-06 18:16 50.46154 1.13970 20335 ft 376 kts 317°
2026-05-06 18:16 50.48109 1.11263 19850 ft 374 kts 317°
2026-05-06 18:16 50.50023 1.08611 19389 ft 371 kts 317°
2026-05-06 18:16 50.51898 1.05847 18913 ft 368 kts 314°
2026-05-06 18:17 50.53650 1.02982 18411 ft 365 kts 313°
2026-05-06 18:17 50.55383 1.00066 17917 ft 363 kts 312°
2026-05-06 18:17 50.57088 0.97180 17439 ft 360 kts 312°
2026-05-06 18:17 50.58766 0.94338 16964 ft 357 kts 312°
2026-05-06 18:18 50.60459 0.91471 16528 ft 353 kts 313°
2026-05-06 18:18 50.62094 0.88703 16335 ft 342 kts 313°
2026-05-06 18:18 50.63690 0.85999 16144 ft 332 kts 313°
2026-05-06 18:18 50.65219 0.83407 15960 ft 322 kts 313°
2026-05-06 18:19 50.66725 0.80852 15781 ft 312 kts 313°
2026-05-06 18:19 50.68123 0.78320 15604 ft 303 kts 309°
2026-05-06 18:19 50.69420 0.75805 15434 ft 294 kts 309°
2026-05-06 18:19 50.70693 0.73309 15265 ft 285 kts 309°
2026-05-06 18:20 50.71914 0.70910 15098 ft 277 kts 309°
2026-05-06 18:20 50.73097 0.68588 14934 ft 269 kts 309°
2026-05-06 18:20 50.74249 0.66326 14720 ft 263 kts 309°
2026-05-06 18:20 50.75387 0.64091 14403 ft 261 kts 309°
2026-05-06 18:21 50.76522 0.61861 14059 ft 260 kts 309°
2026-05-06 18:21 50.77646 0.59648 13721 ft 259 kts 309°
2026-05-06 18:21 50.78760 0.57453 13386 ft 258 kts 309°
2026-05-06 18:21 50.79893 0.55221 13045 ft 257 kts 309°
2026-05-06 18:22 50.80998 0.53043 12712 ft 256 kts 310°
2026-05-06 18:22 50.82119 0.50833 12385 ft 255 kts 310°
2026-05-06 18:22 50.83220 0.48661 12065 ft 254 kts 310°
2026-05-06 18:22 50.84312 0.46506 11748 ft 252 kts 310°
2026-05-06 18:23 50.85405 0.44346 11433 ft 251 kts 310°
2026-05-06 18:23 50.86489 0.42203 11114 ft 249 kts 310°
2026-05-06 18:23 50.87574 0.40057 10786 ft 248 kts 310°
2026-05-06 18:23 50.88644 0.37935 10462 ft 247 kts 310°
2026-05-06 18:24 50.89709 0.35823 10143 ft 246 kts 310°
2026-05-06 18:24 50.90798 0.33707 9703 ft 251 kts 310°
2026-05-06 18:24 50.91912 0.31606 9399 ft 248 kts 311°
2026-05-06 18:24 50.93012 0.29538 9170 ft 244 kts 311°
2026-05-06 18:25 50.94098 0.27490 8858 ft 243 kts 310°
2026-05-06 18:25 50.94969 0.25218 8511 ft 245 kts 292°
2026-05-06 18:25 50.95492 0.22665 8210 ft 244 kts 287°
2026-05-06 18:25 50.95946 0.20066 7884 ft 243 kts 286°
2026-05-06 18:26 50.96383 0.17505 7576 ft 242 kts 286°
2026-05-06 18:26 50.96824 0.14926 7263 ft 241 kts 286°
2026-05-06 18:26 50.97257 0.12389 6956 ft 240 kts 286°
2026-05-06 18:26 50.97690 0.09841 6644 ft 239 kts 286°
2026-05-06 18:27 50.98125 0.07295 6321 ft 238 kts 286°
2026-05-06 18:27 50.98557 0.04785 6060 ft 235 kts 286°
2026-05-06 18:27 50.98972 0.02324 5896 ft 228 kts 286°
2026-05-06 18:27 50.99375 -0.00100 5647 ft 226 kts 286°
2026-05-06 18:28 50.99770 -0.02517 5389 ft 225 kts 286°
2026-05-06 18:28 51.00158 -0.04909 5124 ft 225 kts 286°
2026-05-06 18:28 51.00546 -0.07301 4860 ft 224 kts 286°
2026-05-06 18:28 51.00930 -0.09666 4596 ft 223 kts 286°
2026-05-06 18:29 51.01312 -0.12040 4338 ft 222 kts 286°
2026-05-06 18:29 51.01694 -0.14433 4223 ft 222 kts 286°
2026-05-06 18:29 51.02069 -0.16795 4123 ft 222 kts 286°
2026-05-06 18:29 51.02439 -0.19143 4023 ft 221 kts 286°
2026-05-06 18:30 51.02815 -0.21519 3923 ft 220 kts 286°
2026-05-06 18:30 51.03184 -0.23876 3823 ft 220 kts 286°
2026-05-06 18:30 51.03551 -0.26235 3722 ft 220 kts 286°
2026-05-06 18:30 51.03916 -0.28596 3618 ft 221 kts 286°
2026-05-06 18:31 51.04278 -0.30962 3448 ft 221 kts 286°
2026-05-06 18:31 51.04637 -0.33333 3271 ft 220 kts 286°
2026-05-06 18:31 51.04988 -0.35664 3097 ft 220 kts 286°
2026-05-06 18:31 51.05338 -0.38020 2984 ft 216 kts 286°
2026-05-06 18:32 51.05670 -0.40299 3016 ft 209 kts 286°
2026-05-06 18:32 51.06103 -0.42500 3046 ft 206 kts 302°
2026-05-06 18:32 51.07086 -0.43920 2971 ft 183 kts 340°
2026-05-06 18:32 51.08295 -0.43968 2961 ft 176 kts 20°
2026-05-06 18:33 51.09255 -0.42779 2992 ft 178 kts 47°
2026-05-06 18:33 51.10026 -0.41257 2871 ft 179 kts 51°
2026-05-06 18:33 51.10760 -0.39723 2602 ft 168 kts 51°
2026-05-06 18:33 51.11441 -0.38277 2457 ft 156 kts 52°
2026-05-06 18:34 51.12048 -0.36929 2288 ft 144 kts 54°
2026-05-06 18:34 51.12432 -0.35521 2075 ft 139 kts 73°
2026-05-06 18:34 51.12665 -0.34030 1905 ft 137 kts 72°
2026-05-06 18:34 51.12911 -0.32576 1735 ft 137 kts 72°
2026-05-06 18:35 51.13109 -0.31084 1582 ft 137 kts 76°
2026-05-06 18:35 51.13316 -0.29621 1411 ft 136 kts 72°
2026-05-06 18:35 51.13540 -0.28167 1230 ft 136 kts 75°
2026-05-06 18:35 51.13742 -0.26711 1012 ft 135 kts 74°
2026-05-06 18:36 51.13951 -0.25258 807 ft 134 kts 75°
2026-05-06 18:36 51.14151 -0.23796 609 ft 133 kts 75°
2026-05-06 18:36 51.14356 -0.22354 432 ft 133 kts 76°
2026-05-06 18:36 51.14552 -0.20933 265 ft 131 kts 76°
2026-05-06 18:37 51.14741 -0.19581 200 ft 109 kts 78°
2026-05-06 18:37 51.14832 -0.18913 199 ft 72 kts 77°
2026-05-06 18:37 51.14928 -0.18204 199 ft 28 kts 77°
2026-05-06 18:37 51.14983 -0.17957 199 ft 21 kts 58°
2026-05-06 18:38 51.15044 -0.17822 199 ft 8 kts 53°
2026-05-06 18:38 51.15083 -0.17758 199 ft 7 kts 20°
2026-05-06 18:38 51.15139 -0.17759 199 ft 7 kts 354°
2026-05-06 18:38 51.15177 -0.17714 199 ft 8 kts 72°
2026-05-06 18:39 51.15192 -0.17619 199 ft 9 kts 77°
2026-05-06 18:39 51.15201 -0.17552 199 ft 5 kts 78°
2026-05-06 18:39 51.15207 -0.17505 199 ft 4 kts 78°
2026-05-06 18:40 51.15223 -0.17391 199 ft 6 kts 77°
2026-05-06 18:40 51.15254 -0.17341 199 ft 7 kts
2026-05-06 18:40 51.15320 -0.17359 199 ft 10 kts 348°
2026-05-06 18:40 51.15367 -0.17300 199 ft 10 kts 75°
2026-05-06 18:41 51.15388 -0.17185 199 ft 11 kts 71°
2026-05-06 18:41 51.15416 -0.17066 199 ft 11 kts 76°
2026-05-06 18:41 51.15429 -0.16970 199 ft 5 kts 72°
2026-05-06 18:41 51.15460 -0.16951 199 ft 4 kts 351°
2026-05-06 18:42 51.15480 -0.16959 199 ft 0 kts 346°